| time (UTC) | temp F | wind direction | speed knots | gust knots | rain 1hr in | rain 24hr in | rain mn in | humidity % | barometer mb |
| 20260506143509 | 77 | 154 | 0.9 | 6.1 | 0.00 | 0.00 | 0.00 | 87 | 1010.7 |
| 20260506143007 | 77 | 165 | 2.6 | 6.1 | 0.00 | 0.00 | 0.00 | 86 | 1010.7 |
| 20260506142508 | 77 | 188 | 1.7 | 5.2 | 0.00 | 0.00 | 0.00 | 87 | 1010.6 |
| 20260506142009 | 77 | 167 | 1.7 | 5.2 | 0.00 | 0.00 | 0.00 | 87 | 1010.8 |
| 20260506141524 | 77 | 167 | 1.7 | 5.2 | 0.00 | 0.00 | 0.00 | 87 | 1010.8 |
| 20260506140504 | 77 | 173 | 2.6 | 5.2 | 0.00 | 0.00 | 0.00 | 88 | 1010.3 |
| 20260506140008 | 76 | 205 | 2.6 | 4.3 | 0.00 | 0.00 | 0.00 | 88 | 1010.2 |
| 20260506135504 | 76 | 151 | 2.6 | 4.3 | 0.00 | 0.00 | 0.00 | 88 | 1010.2 |
| 20260506135006 | 76 | 134 | 2.6 | 5.2 | 0.00 | 0.00 | 0.00 | 88 | 1010.2 |
| 20260506134514 | 76 | 141 | 2.6 | 5.2 | 0.00 | 0.00 | 0.00 | 88 | 1010.2 |
| 20260506134009 | 76 | 131 | 0.9 | 4.3 | 0.00 | 0.00 | 0.00 | 89 | 1010.1 |
| 20260506133506 | 76 | 126 | 2.6 | 4.3 | 0.00 | 0.00 | 0.00 | 89 | 1010.0 |
| 20260506133029 | 76 | 149 | 1.7 | 3.5 | 0.00 | 0.00 | 0.00 | 90 | 1010.1 |
| 20260506132509 | 75 | 167 | 1.7 | 3.5 | 0.00 | 0.00 | 0.00 | 90 | 1010.1 |
| 20260506132008 | 75 | 175 | 0.9 | 2.6 | 0.00 | 0.00 | 0.00 | 91 | 1010.1 |
| 20260506131517 | 75 | 173 | 0.9 | 3.5 | 0.00 | 0.00 | 0.00 | 91 | 1010.0 |
| 20260506131007 | 75 | 167 | 0.9 | 3.5 | 0.00 | 0.00 | 0.00 | 91 | 1009.9 |
| 20260506130508 | 75 | 162 | 1.7 | 4.3 | 0.00 | 0.00 | 0.00 | 92 | 1009.9 |
| 20260506125505 | 74 | 173 | 1.7 | 3.5 | 0.00 | 0.00 | 0.00 | 1009.7 | |
| 20260506125003 | 74 | 146 | 1.7 | 3.5 | 0.00 | 0.00 | 0.00 | 1009.8 | |
| 20260506124007 | 74 | 145 | 0.9 | 2.6 | 0.00 | 0.00 | 0.00 | 1009.8 | |
| 20260506123507 | 74 | 146 | 0.9 | 1.7 | 0.00 | 0.00 | 0.00 | 1009.8 | |
| 20260506123016 | 74 | 135 | 0.0 | 1.7 | 0.00 | 0.00 | 0.00 | 92 | 1009.8 |
| 20260506122508 | 74 | 131 | 0.0 | 1.7 | 0.00 | 0.00 | 0.00 | 92 | 1009.7 |
| 20260506122006 | 74 | 136 | 0.9 | 1.7 | 0.00 | 0.00 | 0.00 | 92 | 1009.6 |
| 20260506121520 | 74 | 142 | 0.9 | 1.7 | 0.00 | 0.00 | 0.00 | 92 | 1009.6 |
| 20260506121014 | 74 | 134 | 0.0 | 2.6 | 0.00 | 0.00 | 0.00 | 92 | 1009.6 |
| 20260506120508 | 74 | 128 | 0.9 | 2.6 | 0.00 | 0.00 | 0.00 | 92 | 1009.7 |
| 20260506120033 | 74 | 142 | 0.9 | 2.6 | 0.00 | 0.00 | 0.00 | 92 | 1009.6 |
| 20260506115509 | 74 | 136 | 0.9 | 1.7 | 0.00 | 0.00 | 0.00 | 92 | 1009.6 |
| 20260506114003 | 74 | 157 | 0.9 | 2.6 | 0.00 | 0.00 | 0.00 | 92 | 1009.5 |
| 20260506113508 | 74 | 143 | 0.9 | 2.6 | 0.00 | 0.00 | 0.00 | 92 | 1009.5 |
| 20260506112507 | 74 | 174 | 0.0 | 1.7 | 0.00 | 0.00 | 0.00 | 91 | 1009.6 |
| 20260506112006 | 74 | 186 | 0.9 | 3.5 | 0.00 | 0.00 | 0.00 | 91 | 1009.5 |
| 20260506111510 | 74 | 184 | 0.9 | 4.3 | 0.00 | 0.00 | 0.00 | 91 | 1009.4 |
| 20260506111010 | 74 | 197 | 1.7 | 4.3 | 0.00 | 0.00 | 0.00 | 91 | 1009.4 |
| 20260506110513 | 74 | 203 | 1.7 | 4.3 | 0.00 | 0.00 | 0.00 | 91 | 1009.4 |
| 20260506110020 | 74 | 169 | 1.7 | 4.3 | 0.00 | 0.00 | 0.00 | 91 | 1009.3 |
| 20260506105508 | 74 | 182 | 0.9 | 4.3 | 0.00 | 0.00 | 0.00 | 91 | 1009.3 |
| 20260506105008 | 74 | 196 | 1.7 | 4.3 | 0.00 | 0.00 | 0.00 | 91 | 1009.2 |
| 20260506104525 | 74 | 157 | 1.7 | 3.5 | 0.00 | 0.00 | 0.00 | 91 | 1009.0 |
| 20260506104007 | 74 | 175 | 0.9 | 3.5 | 0.00 | 0.00 | 0.00 | 91 | 1009.1 |
| 20260506103510 | 74 | 167 | 1.7 | 5.2 | 0.00 | 0.00 | 0.00 | 91 | 1009.1 |
| 20260506103005 | 74 | 186 | 1.7 | 5.2 | 0.00 | 0.00 | 0.00 | 91 | 1008.9 |
| 20260506102507 | 75 | 178 | 1.7 | 4.3 | 0.00 | 0.00 | 0.00 | 91 | 1008.9 |
| 20260506102004 | 75 | 151 | 2.6 | 5.2 | 0.00 | 0.00 | 0.00 | 90 | 1008.9 |
| 20260506101513 | 75 | 166 | 1.7 | 5.2 | 0.00 | 0.00 | 0.00 | 90 | 1008.8 |
| 20260506101005 | 75 | 143 | 1.7 | 5.2 | 0.00 | 0.00 | 0.00 | 90 | 1008.7 |
| 20260506100506 | 75 | 212 | 2.6 | 5.2 | 0.00 | 0.00 | 0.00 | 90 | 1008.7 |
| 20260506100016 | 75 | 191 | 2.6 | 5.2 | 0.00 | 0.00 | 0.00 | 90 | 1008.5 |
| 20260506095507 | 75 | 178 | 2.6 | 4.3 | 0.00 | 0.00 | 0.00 | 90 | 1008.5 |
| 20260506095006 | 75 | 197 | 2.6 | 6.1 | 0.00 | 0.00 | 0.00 | 90 | 1008.5 |
| 20260506094506 | 75 | 182 | 3.5 | 6.1 | 0.00 | 0.00 | 0.00 | 90 | 1008.5 |
| 20260506094004 | 75 | 186 | 3.5 | 7.0 | 0.00 | 0.00 | 0.00 | 90 | 1008.5 |
| 20260506093507 | 75 | 165 | 2.6 | 7.0 | 0.00 | 0.00 | 0.00 | 90 | 1008.5 |
| 20260506093014 | 75 | 156 | 2.6 | 6.1 | 0.00 | 0.00 | 0.00 | 90 | 1008.4 |
| 20260506092509 | 75 | 180 | 3.5 | 7.8 | 0.00 | 0.00 | 0.00 | 90 | 1008.4 |
| 20260506092007 | 75 | 180 | 2.6 | 7.8 | 0.00 | 0.00 | 0.00 | 90 | 1008.3 |
| 20260506091510 | 75 | 169 | 3.5 | 7.8 | 0.00 | 0.00 | 0.00 | 90 | 1008.3 |
| 20260506091007 | 75 | 180 | 3.5 | 6.1 | 0.00 | 0.00 | 0.00 | 90 | 1008.3 |
| 20260506090509 | 75 | 173 | 3.5 | 7.0 | 0.00 | 0.00 | 0.00 | 90 | 1008.4 |
| 20260506090010 | 75 | 203 | 3.5 | 7.0 | 0.00 | 0.00 | 0.00 | 90 | 1008.4 |
| 20260506085507 | 75 | 183 | 4.3 | 9.6 | 0.00 | 0.00 | 0.00 | 90 | 1008.4 |
| 20260506085007 | 75 | 188 | 5.2 | 9.6 | 0.00 | 0.00 | 0.00 | 90 | 1008.5 |
| 20260506083503 | 75 | 171 | 2.6 | 7.8 | 0.00 | 0.00 | 0.00 | 90 | 1008.3 |
| 20260506083010 | 75 | 208 | 4.3 | 7.8 | 0.00 | 0.00 | 0.00 | 90 | 1008.3 |
| 20260506082505 | 75 | 176 | 4.3 | 8.7 | 0.00 | 0.00 | 0.00 | 90 | 1008.3 |
| 20260506082009 | 75 | 187 | 4.3 | 8.7 | 0.00 | 0.00 | 0.00 | 90 | 1008.3 |
| 20260506081512 | 75 | 163 | 4.3 | 11.3 | 0.00 | 0.00 | 0.00 | 90 | 1008.4 |
| 20260506081010 | 75 | 190 | 5.2 | 11.3 | 0.00 | 0.00 | 0.00 | 90 | 1008.3 |
| 20260506073509 | 75 | 193 | 4.3 | 8.7 | 0.00 | 0.00 | 0.00 | 90 | 1008.5 |
| 20260506073013 | 75 | 159 | 2.6 | 12.2 | 0.00 | 0.00 | 0.00 | 90 | 1008.5 |
| 20260506072010 | 75 | 145 | 5.2 | 11.3 | 0.00 | 0.00 | 0.00 | 90 | 1008.3 |
| 20260506071510 | 75 | 165 | 7.0 | 12.2 | 0.00 | 0.00 | 0.00 | 90 | 1008.3 |
| 20260506071006 | 75 | 186 | 6.1 | 13.0 | 0.00 | 0.00 | 0.00 | 90 | 1008.3 |
| 20260506070507 | 75 | 167 | 6.1 | 13.0 | 0.00 | 0.00 | 0.00 | 91 | 1008.4 |
| 20260506062507 | 74 | 189 | 5.2 | 10.4 | 0.00 | 0.00 | 0.00 | 91 | 1008.4 |
| 20260506061516 | 74 | 169 | 4.3 | 10.4 | 0.00 | 0.00 | 0.00 | 91 | 1008.3 |
| 20260506061006 | 74 | 167 | 5.2 | 10.4 | 0.00 | 0.00 | 0.00 | 91 | 1008.5 |
| 20260506060507 | 74 | 137 | 5.2 | 9.6 | 0.00 | 0.00 | 0.00 | 91 | 1008.4 |
| 20260506051006 | 74 | 154 | 5.2 | 9.6 | 0.00 | 0.00 | 0.00 | 1008.5 | |
| 20260506045009 | 74 | 165 | 3.5 | 7.0 | 0.00 | 0.00 | 0.00 | 90 | 1008.7 |
| 20260506044519 | 74 | 167 | 3.5 | 8.7 | 0.00 | 0.00 | 0.00 | 90 | 1008.5 |
| 20260506044007 | 75 | 143 | 4.3 | 8.7 | 0.00 | 0.00 | 0.00 | 89 | 1008.5 |
| 20260506043509 | 75 | 178 | 5.2 | 9.6 | 0.00 | 0.00 | 0.00 | 89 | 1008.5 |
| 20260506043022 | 75 | 153 | 4.3 | 9.6 | 0.00 | 0.00 | 0.00 | 89 | 1008.6 |
| 20260506042507 | 75 | 200 | 4.3 | 8.7 | 0.00 | 0.00 | 0.00 | 89 | 1008.5 |
| 20260506042007 | 75 | 158 | 4.3 | 9.6 | 0.00 | 0.00 | 0.00 | 89 | 1008.3 |
| 20260506041519 | 75 | 151 | 3.5 | 9.6 | 0.00 | 0.00 | 0.00 | 89 | 1008.2 |
| 20260506041010 | 75 | 157 | 5.2 | 8.7 | 0.00 | 0.00 | 0.00 | 88 | 1008.2 |
| 20260506040508 | 75 | 146 | 4.3 | 8.7 | 0.00 | 0.00 | 0.00 | 88 | 1008.2 |
| 20260506040032 | 75 | 166 | 4.3 | 8.7 | 0.00 | 0.00 | 0.00 | 88 | 1008.2 |
| 20260506035506 | 75 | 148 | 6.1 | 8.7 | 0.00 | 0.00 | 0.00 | 88 | 1008.3 |
| 20260506035008 | 75 | 159 | 4.3 | 7.8 | 0.00 | 0.00 | 0.00 | 88 | 1008.2 |
| 20260506034514 | 75 | 157 | 4.3 | 8.7 | 0.00 | 0.00 | 0.00 | 87 | 1008.1 |
| 20260506034007 | 76 | 168 | 5.2 | 9.6 | 0.00 | 0.00 | 0.00 | 87 | 1007.9 |
| 20260506033508 | 76 | 166 | 4.3 | 8.7 | 0.00 | 0.00 | 0.00 | 87 | 1007.9 |
| 20260506033016 | 76 | 140 | 6.1 | 8.7 | 0.00 | 0.00 | 0.00 | 87 | 1007.9 |
| 20260506032506 | 76 | 136 | 5.2 | 8.7 | 0.00 | 0.00 | 0.00 | 87 | 1007.9 |
| 20260506032011 | 76 | 165 | 5.2 | 7.8 | 0.00 | 0.00 | 0.00 | 87 | 1008.0 |
| 20260506031521 | 76 | 170 | 4.3 | 7.8 | 0.00 | 0.00 | 0.00 | 87 | 1008.0 |
| 20260506031008 | 76 | 159 | 3.5 | 7.8 | 0.00 | 0.00 | 0.00 | 87 | 1007.9 |
| 20260506030512 | 76 | 133 | 3.5 | 7.8 | 0.00 | 0.00 | 0.00 | 86 | 1007.7 |
| 20260506030022 | 76 | 155 | 3.5 | 7.8 | 0.00 | 0.00 | 0.00 | 86 | 1007.5 |
| 20260506025506 | 76 | 136 | 4.3 | 10.4 | 0.00 | 0.00 | 0.00 | 86 | 1007.4 |
| 20260506024525 | 77 | 157 | 6.1 | 9.6 | 0.00 | 0.00 | 0.00 | 85 | 1007.2 |
| 20260506024010 | 77 | 163 | 4.3 | 10.4 | 0.00 | 0.00 | 0.00 | 85 | 1007.2 |
| 20260506023508 | 77 | 180 | 5.2 | 10.4 | 0.00 | 0.00 | 0.00 | 85 | 1007.0 |
| 20260506023025 | 77 | 194 | 5.2 | 7.8 | 0.00 | 0.00 | 0.00 | 84 | 1006.8 |
| 20260506022508 | 77 | 159 | 4.3 | 7.0 | 0.00 | 0.00 | 0.00 | 84 | 1006.8 |
| 20260506022012 | 77 | 161 | 3.5 | 9.6 | 0.00 | 0.00 | 0.00 | 83 | 1006.8 |
| 20260506021529 | 78 | 152 | 4.3 | 9.6 | 0.00 | 0.00 | 0.00 | 83 | 1006.8 |
| 20260506021011 | 78 | 161 | 4.3 | 8.7 | 0.00 | 0.00 | 0.00 | 83 | 1006.7 |
| 20260506020507 | 78 | 171 | 5.2 | 8.7 | 0.00 | 0.00 | 0.00 | 83 | 1006.6 |
| 20260506020020 | 78 | 151 | 3.5 | 7.8 | 0.00 | 0.00 | 0.00 | 82 | 1006.6 |
| 20260506015510 | 78 | 136 | 5.2 | 8.7 | 0.00 | 0.00 | 0.00 | 82 | 1006.6 |
| 20260506015014 | 78 | 170 | 4.3 | 9.6 | 0.00 | 0.00 | 0.00 | 82 | 1006.6 |
| 20260506014522 | 78 | 159 | 4.3 | 9.6 | 0.00 | 0.00 | 0.00 | 82 | 1006.6 |
| 20260506013511 | 79 | 177 | 3.5 | 7.0 | 0.00 | 0.00 | 0.00 | 82 | 1006.6 |
| 20260506013006 | 79 | 153 | 2.6 | 7.0 | 0.00 | 0.00 | 0.00 | 82 | 1006.6 |
| 20260506012505 | 79 | 153 | 2.6 | 5.2 | 0.00 | 0.00 | 0.00 | 82 | 1006.5 |
| 20260506012009 | 79 | 142 | 2.6 | 4.3 | 0.00 | 0.00 | 0.00 | 81 | 1006.6 |
| 20260506011507 | 79 | 159 | 2.6 | 4.3 | 0.00 | 0.00 | 0.00 | 81 | 1006.5 |
| 20260506011006 | 79 | 175 | 1.7 | 3.5 | 0.00 | 0.00 | 0.00 | 81 | 1006.5 |
| 20260506010506 | 80 | 160 | 1.7 | 3.5 | 0.00 | 0.00 | 0.00 | 80 | 1006.5 |
| 20260506010004 | 80 | 159 | 1.7 | 3.5 | 0.00 | 0.00 | 0.00 | 80 | 1006.5 |
| 20260506005504 | 80 | 193 | 1.7 | 4.3 | 0.00 | 0.00 | 0.00 | 80 | 1006.5 |
| 20260506005003 | 80 | 206 | 1.7 | 6.1 | 0.00 | 0.00 | 0.00 | 79 | 1006.4 |
| 20260506004510 | 80 | 183 | 2.6 | 6.1 | 0.00 | 0.00 | 0.00 | 79 | 1006.3 |
| 20260506004004 | 81 | 189 | 2.6 | 5.2 | 0.00 | 0.00 | 0.00 | 79 | 1006.1 |
| 20260506003506 | 81 | 159 | 2.6 | 6.1 | 0.00 | 0.00 | 0.00 | 78 | 1006.1 |
| 20260506003016 | 81 | 160 | 2.6 | 7.0 | 0.00 | 0.00 | 0.00 | 78 | 1006.1 |
| 20260506002503 | 81 | 187 | 2.6 | 7.8 | 0.00 | 0.00 | 0.00 | 78 | 1006.1 |
| 20260506002005 | 81 | 178 | 3.5 | 7.8 | 0.00 | 0.00 | 0.00 | 78 | 1006.1 |
| 20260506001515 | 81 | 226 | 1.7 | 7.8 | 0.00 | 0.00 | 0.00 | 78 | 1006.0 |
| 20260506001010 | 81 | 205 | 4.3 | 7.8 | 0.00 | 0.00 | 0.00 | 78 | 1005.9 |
| 20260506000003 | 82 | 198 | 5.2 | 10.4 | 0.00 | 0.00 | 0.00 | 77 | 1005.8 |
| 20260505235504 | 82 | 142 | 4.3 | 10.4 | 0.00 | 0.00 | 0.00 | 76 | 1005.7 |
| 20260505235004 | 82 | 168 | 5.2 | 9.6 | 0.00 | 0.00 | 0.00 | 76 | 1005.7 |
| 20260505234525 | 82 | 158 | 3.5 | 11.3 | 0.00 | 0.00 | 0.00 | 77 | 1005.6 |
| 20260505234004 | 82 | 168 | 4.3 | 11.3 | 0.00 | 0.00 | 0.00 | 77 | 1005.6 |
| 20260505233503 | 82 | 172 | 4.3 | 9.6 | 0.00 | 0.00 | 0.00 | 76 | 1005.5 |
| 20260505233008 | 82 | 163 | 5.2 | 9.6 | 0.00 | 0.00 | 0.00 | 76 | 1005.5 |
| 20260505232508 | 82 | 146 | 4.3 | 7.8 | 0.00 | 0.00 | 0.00 | 76 | 1005.7 |
| 20260505232007 | 82 | 166 | 4.3 | 9.6 | 0.00 | 0.00 | 0.00 | 75 | 1005.7 |
| 20260505231503 | 82 | 169 | 5.2 | 9.6 | 0.00 | 0.00 | 0.00 | 74 | 1005.7 |
| 20260505231006 | 83 | 173 | 4.3 | 10.4 | 0.00 | 0.00 | 0.00 | 74 | 1005.6 |
| 20260505230506 | 83 | 196 | 4.3 | 10.4 | 0.00 | 0.00 | 0.00 | 74 | 1005.7 |
| 20260505230018 | 83 | 186 | 4.3 | 7.0 | 0.00 | 0.00 | 0.00 | 75 | 1005.8 |
| 20260505225008 | 83 | 192 | 4.3 | 10.4 | 0.00 | 0.00 | 0.00 | 74 | 1005.9 |
| 20260505224507 | 83 | 187 | 5.2 | 10.4 | 0.00 | 0.00 | 0.00 | 73 | 1005.9 |
| 20260505224004 | 83 | 173 | 4.3 | 13.0 | 0.00 | 0.00 | 0.00 | 74 | 1005.8 |
| 20260505223510 | 83 | 184 | 7.8 | 12.2 | 0.00 | 0.00 | 0.00 | 72 | 1005.9 |
| 20260505223011 | 83 | 167 | 5.2 | 13.0 | 0.00 | 0.00 | 0.00 | 73 | 1005.9 |
| 20260505222509 | 83 | 167 | 7.0 | 13.0 | 0.00 | 0.00 | 0.00 | 72 | 1005.9 |
| 20260505222008 | 83 | 164 | 7.0 | 13.0 | 0.00 | 0.00 | 0.00 | 74 | 1005.9 |
| 20260505221522 | 83 | 150 | 7.0 | 12.2 | 0.00 | 0.00 | 0.00 | 72 | 1006.0 |
| 20260505221016 | 83 | 202 | 7.8 | 12.2 | 0.00 | 0.00 | 0.00 | 72 | 1006.0 |
| 20260505220502 | 83 | 133 | 4.3 | 9.6 | 0.00 | 0.00 | 0.00 | 73 | 1006.0 |
| 20260505220015 | 83 | 204 | 5.2 | 9.6 | 0.00 | 0.00 | 0.00 | 73 | 1005.9 |
| 20260505215506 | 82 | 194 | 6.1 | 12.2 | 0.00 | 0.00 | 0.00 | 74 | 1006.1 |
| 20260505215011 | 82 | 171 | 5.2 | 12.2 | 0.00 | 0.00 | 0.00 | 74 | 1006.1 |
| 20260505214006 | 83 | 201 | 6.1 | 12.2 | 0.00 | 0.00 | 0.00 | 73 | 1006.3 |
| 20260505213503 | 84 | 148 | 7.0 | 17.4 | 0.00 | 0.00 | 0.00 | 70 | 1006.4 |
| 20260505213008 | 83 | 198 | 8.7 | 17.4 | 0.00 | 0.00 | 0.00 | 70 | 1006.3 |
| 20260505212510 | 83 | 179 | 7.8 | 14.8 | 0.00 | 0.00 | 0.00 | 73 | 1006.3 |
| 20260505212006 | 83 | 165 | 8.7 | 14.8 | 0.00 | 0.00 | 0.00 | 72 | 1006.2 |
| 20260505211515 | 82 | 214 | 7.0 | 14.8 | 0.00 | 0.00 | 0.00 | 74 | 1006.3 |
| 20260505211006 | 82 | 199 | 8.7 | 14.8 | 0.00 | 0.00 | 0.00 | 74 | 1006.5 |
| 20260505210508 | 82 | 194 | 8.7 | 13.0 | 0.00 | 0.00 | 0.00 | 73 | 1006.6 |
| 20260505210019 | 82 | 186 | 7.8 | 13.0 | 0.00 | 0.00 | 0.00 | 73 | 1006.6 |
| 20260505205503 | 82 | 175 | 6.1 | 15.6 | 0.00 | 0.00 | 0.00 | 74 | 1006.7 |
| 20260505205007 | 82 | 175 | 7.0 | 15.6 | 0.00 | 0.00 | 0.00 | 74 | 1006.7 |
| 20260505204521 | 82 | 155 | 9.6 | 13.9 | 0.00 | 0.00 | 0.00 | 73 | 1006.8 |
| 20260505204015 | 82 | 198 | 7.0 | 13.0 | 0.00 | 0.00 | 0.00 | 75 | 1006.8 |
| 20260505203031 | 81 | 172 | 7.0 | 11.3 | 0.00 | 0.00 | 0.00 | 75 | 1007.2 |
| 20260505202508 | 81 | 212 | 6.1 | 10.4 | 0.00 | 0.00 | 0.00 | 76 | 1007.3 |
| 20260505202007 | 81 | 218 | 6.1 | 12.2 | 0.00 | 0.00 | 0.00 | 77 | 1007.3 |
| 20260505201523 | 80 | 197 | 5.2 | 12.2 | 0.00 | 0.00 | 0.00 | 77 | 1007.4 |
| 20260505201007 | 80 | 178 | 5.2 | 11.3 | 0.00 | 0.00 | 0.00 | 77 | 1007.5 |
| 20260505200506 | 80 | 203 | 7.0 | 11.3 | 0.00 | 0.00 | 0.00 | 77 | 1007.5 |
| 20260505200012 | 80 | 201 | 6.1 | 9.6 | 0.00 | 0.00 | 0.00 | 78 | 1007.6 |
| 20260505195511 | 80 | 231 | 6.1 | 11.3 | 0.00 | 0.00 | 0.00 | 77 | 1007.7 |
| 20260505195011 | 80 | 200 | 6.1 | 11.3 | 0.00 | 0.00 | 0.00 | 78 | 1007.7 |
| 20260505194522 | 80 | 194 | 5.2 | 10.4 | 0.00 | 0.00 | 0.00 | 78 | 1007.8 |
| 20260505194007 | 80 | 204 | 7.0 | 12.2 | 0.00 | 0.00 | 0.00 | 76 | 1007.9 |
| 20260505193508 | 80 | 172 | 6.1 | 12.2 | 0.00 | 0.00 | 0.00 | 78 | 1007.9 |
| 20260505193025 | 79 | 203 | 5.2 | 13.9 | 0.00 | 0.00 | 0.00 | 79 | 1008.1 |
| 20260505192009 | 80 | 189 | 9.6 | 13.0 | 0.00 | 0.00 | 0.00 | 77 | 1008.0 |
| 20260505191511 | 80 | 207 | 7.0 | 12.2 | 0.00 | 0.00 | 0.00 | 78 | 1008.1 |
| 20260505191010 | 80 | 227 | 6.1 | 12.2 | 0.00 | 0.00 | 0.00 | 79 | 1008.0 |
| 20260505190509 | 79 | 220 | 5.2 | 12.2 | 0.00 | 0.00 | 0.00 | 79 | 1008.1 |
| 20260505190015 | 79 | 227 | 7.8 | 12.2 | 0.00 | 0.00 | 0.00 | 79 | 1008.2 |
| 20260505185513 | 79 | 202 | 7.8 | 14.8 | 0.00 | 0.00 | 0.00 | 79 | 1008.2 |
| 20260505185008 | 79 | 223 | 7.8 | 14.8 | 0.00 | 0.00 | 0.00 | 79 | 1008.2 |
| 20260505184516 | 79 | 248 | 7.0 | 14.8 | 0.00 | 0.00 | 0.00 | 79 | 1008.2 |
| 20260505184006 | 78 | 215 | 9.6 | 14.8 | 0.00 | 0.00 | 0.00 | 79 | 1008.2 |
| 20260505183508 | 79 | 207 | 7.8 | 14.8 | 0.00 | 0.00 | 0.00 | 80 | 1008.2 |
| 20260505183018 | 78 | 209 | 7.8 | 14.8 | 0.00 | 0.00 | 0.00 | 82 | 1008.2 |
| 20260505182512 | 78 | 211 | 7.8 | 17.4 | 0.00 | 0.00 | 0.00 | 81 | 1008.2 |
| 20260505182012 | 78 | 219 | 8.7 | 17.4 | 0.00 | 0.00 | 0.00 | 81 | 1008.3 |
| 20260505181008 | 77 | 182 | 9.6 | 15.6 | 0.00 | 0.00 | 0.00 | 82 | 1008.5 |
| 20260505180508 | 77 | 221 | 8.7 | 13.9 | 0.00 | 0.00 | 0.00 | 81 | 1008.5 |
| 20260505180020 | 77 | 200 | 7.0 | 13.0 | 0.00 | 0.00 | 0.00 | 82 | 1008.5 |
| 20260505175508 | 76 | 191 | 7.8 | 13.0 | 0.00 | 0.00 | 0.00 | 82 | 1008.6 |
| 20260505175011 | 76 | 190 | 7.0 | 13.0 | 0.00 | 0.00 | 0.00 | 84 | 1008.6 |
| 20260505174535 | 76 | 180 | 5.2 | 12.2 | 0.00 | 0.00 | 0.00 | 84 | 1008.7 |
| 20260505174008 | 76 | 221 | 6.1 | 12.2 | 0.00 | 0.00 | 0.00 | 84 | 1008.8 |
| 20260505173508 | 76 | 207 | 6.1 | 10.4 | 0.00 | 0.00 | 0.00 | 84 | 1008.9 |
| 20260505173028 | 75 | 224 | 7.0 | 14.8 | 0.00 | 0.00 | 0.00 | 84 | 1008.8 |
| 20260505172507 | 75 | 216 | 7.0 | 14.8 | 0.00 | 0.00 | 0.00 | 84 | 1008.8 |
| 20260505172008 | 75 | 207 | 7.8 | 14.8 | 0.00 | 0.00 | 0.00 | 84 | 1008.8 |
| 20260505171524 | 75 | 215 | 7.0 | 13.9 | 0.00 | 0.00 | 0.00 | 84 | 1008.9 |
| 20260505171011 | 75 | 217 | 7.0 | 13.9 | 0.00 | 0.00 | 0.00 | 84 | 1008.9 |
| 20260505170019 | 75 | 173 | 7.8 | 14.8 | 0.00 | 0.00 | 0.00 | 85 | 1009.0 |
| 20260505165513 | 74 | 191 | 8.7 | 13.9 | 0.00 | 0.00 | 0.00 | 85 | 1009.1 |
| 20260505165008 | 74 | 233 | 7.0 | 13.0 | 0.00 | 0.00 | 0.00 | 86 | 1009.1 |
| 20260505164512 | 74 | 209 | 8.7 | 13.0 | 0.00 | 0.00 | 0.00 | 86 | 1009.2 |
| 20260505164007 | 74 | 209 | 6.1 | 13.0 | 0.00 | 0.00 | 0.00 | 86 | 1009.1 |
| 20260505163507 | 74 | 222 | 8.7 | 11.3 | 0.00 | 0.00 | 0.00 | 86 | 1009.1 |
| 20260505163003 | 74 | 197 | 7.0 | 13.0 | 0.00 | 0.00 | 0.00 | 86 | 1009.0 |
| 20260505162504 | 74 | 194 | 8.7 | 14.8 | 0.00 | 0.00 | 0.00 | 86 | 1009.0 |
| 20260505162003 | 74 | 228 | 9.6 | 16.5 | 0.00 | 0.00 | 0.00 | 86 | 1009.0 |
| 20260505161506 | 74 | 205 | 9.6 | 16.5 | 0.00 | 0.00 | 0.00 | 86 | 1009.0 |
| 20260505161004 | 74 | 207 | 8.7 | 13.0 | 0.00 | 0.00 | 0.00 | 1009.0 | |
| 20260505160504 | 74 | 216 | 7.8 | 13.0 | 0.00 | 0.00 | 0.00 | 86 | 1008.9 |
| 20260505152004 | 73 | 175 | 7.8 | 17.4 | 0.00 | 0.00 | 0.00 | 1008.9 | |
| 20260505151503 | 73 | 195 | 9.6 | 17.4 | 0.00 | 0.00 | 0.00 | 86 | 1008.8 |
| 20260505151006 | 74 | 205 | 6.1 | 14.8 | 0.00 | 0.00 | 0.00 | 86 | 1008.8 |
| 20260505150506 | 73 | 211 | 9.6 | 14.8 | 0.00 | 0.00 | 0.00 | 86 | 1008.8 |